Flag for Denmark Weather past 2 weeks in Copenhagen, Denmark

Now
54 °F

Partly sunny.


Feels Like: 49 °F
Forecast: 51 / 54 °F
Wind: 16 mph from Southeast

Location: Koebenhavn-Kastrup Airport

Current Time: Oct 23, 2014 at 10:14:20 AM

Latest Report: Oct 23, 2014 at 9:50 AM


Visibility: N/A

Pressure: 30.12 "Hg

Humidity: 82%

Dew point: 48 °F

Location of CopenhagenLocation

Historic Weather in Copenhagen — Graph

°F

Copenhagen temperature yesterday

Maximum temperature yesterday: 57 °F (at 12:20 PM)
Minimum temperature yesterday: 50 °F (at 7:20 PM)
Average temperature yesterday: 53 °F

Past Weeks' High & Low Weather Summary

 TemperatureHumidityPressure
High64 °F (Oct 9, 1:20 PM)100% (Oct 9, 9:50 PM)30.18 "Hg (Oct 9, 9:50 PM)
Low46 °F (Oct 13, 1:50 AM)63% (Oct 12, 4:50 PM)29.39 "Hg (Oct 21, 8:50 PM)
Average55 °F90%29.80 "Hg
* Reported Oct 8 9:20 AM — Oct 23 9:20 AM, Copenhagen, Weather by CustomWeather, © 2014

Note: Actual official high and low records may vary slightly from our data, if they occured in-between our weather recording intervals... More about our weather records

Advertising

Copenhagen weather history for previous 24 hours

 ConditionsComfort  
Time TempWeatherWind HumidityBarometerVisibility
9:20 AM
Oct 23
52 °FPartly sunny.15 mph88%30.12 "HgN/A
8:50 AM52 °FPassing clouds.15 mph88%30.12 "HgN/A
8:20 AM52 °FPartly cloudy.14 mph88%30.12 "HgN/A
7:50 AM52 °FPartly cloudy.14 mph88%30.09 "HgN/A
7:20 AM52 °FPassing clouds.14 mph88%30.09 "HgN/A
6:50 AM52 °FPartly cloudy.13 mph88%30.09 "HgN/A
6:20 AM52 °FPassing clouds.10 mph88%30.09 "HgN/A
5:50 AM52 °FPassing clouds.12 mph88%30.07 "HgN/A
5:20 AM52 °FPassing clouds.13 mph94%30.07 "HgN/A
4:50 AM52 °FPassing clouds.12 mph94%30.07 "HgN/A
4:20 AM52 °FPassing clouds.12 mph94%30.07 "HgN/A
3:50 AM52 °FLight rain. Passing clouds.13 mph94%30.07 "HgN/A
3:20 AM52 °FPassing clouds.13 mph94%30.04 "HgN/A
2:50 AM52 °FPassing clouds.13 mph94%30.04 "HgN/A
2:20 AM52 °FPassing clouds.15 mph94%30.04 "HgN/A
1:50 AM52 °FPassing clouds.13 mph88%30.04 "HgN/A
1:20 AM52 °FPassing clouds.14 mph88%30.04 "HgN/A
12:50 AM52 °FPassing clouds.12 mph88%30.01 "HgN/A
12:20 AM52 °FPassing clouds.13 mph94%30.01 "HgN/A
11:50 PM
Oct 22
52 °FPassing clouds.12 mph94%30.01 "HgN/A
11:20 PM50 °FPassing clouds.10 mph94%30.01 "HgN/A
10:50 PM50 °FLight rain. Passing clouds.12 mph100%29.98 "HgN/A
10:20 PM50 °FPassing clouds.14 mph94%29.98 "HgN/A
9:50 PM50 °FPassing clouds.14 mph94%29.98 "HgN/A
9:20 PM50 °FPassing clouds.15 mph94%29.98 "HgN/A
8:50 PM50 °FPassing clouds.15 mph94%29.95 "HgN/A
8:20 PM50 °FPassing clouds.15 mph88%29.95 "HgN/A
7:50 PM50 °FPassing clouds.14 mph94%29.92 "HgN/A
7:20 PM50 °FPassing clouds.17 mph88%29.92 "HgN/A
6:50 PM52 °FPartly sunny.15 mph82%29.92 "HgN/A
6:20 PM52 °FPartly sunny.16 mph88%29.89 "HgN/A
5:50 PM52 °FPartly sunny.14 mph88%29.86 "HgN/A
5:20 PM54 °FPartly sunny.14 mph88%29.86 "HgN/A
4:20 PM54 °FPartly sunny.14 mph88%29.83 "HgN/A
3:50 PM54 °FPartly sunny.12 mph88%29.80 "HgN/A
3:20 PM55 °FBroken clouds.14 mph88%29.80 "HgN/A
2:50 PM55 °FBroken clouds.13 mph88%29.77 "HgN/A
2:02 PM55 °FBroken clouds.12 mph88%29.77 "HgN/A
1:50 PM57 °FBroken clouds.13 mph82%29.74 "HgN/A
1:20 PM57 °FPartly sunny.8 mph82%29.71 "HgN/A
12:50 PM55 °FBroken clouds.8 mph88%29.71 "HgN/A
12:20 PM57 °FBroken clouds.10 mph82%29.68 "HgN/A
11:50 AM55 °FBroken clouds.10 mph88%29.68 "HgN/A
11:20 AM55 °FBroken clouds.10 mph88%29.68 "HgN/A
10:50 AM54 °FBroken clouds.12 mph94%29.65 "HgN/A
10:20 AM54 °FBroken clouds.10 mph94%29.62 "HgN/A
Weather by CustomWeather, © 2014

See weather overviewHow to use our weather pages